Location: Bismarck
(46.7731°N, 100.8200°W)
Time: 05:27:47
(UTC-05:00)

Landsat 7 - Visible Passes

Search period start: 05 May 2016 00:00
Search period end: 15 May 2016 00:00
Orbit: 701 x 703 km, 98.2° (Epoch: 05 May)

Date Brightness Start Highest point End Pass type
(mag) Time Alt. Az. Time Alt. Az. Time Alt. Az.
05 May 5.9 00:40:29 16° WSW 00:41:45 17° W 00:44:54 10° NW visible
05 May 5.4 22:05:55 12° ESE 22:09:00 21° ENE 22:12:31 10° NNE visible
05 May 4.3 23:44:48 37° SSW 23:46:22 55° W 23:51:04 10° NNW visible
06 May 4.3 22:49:07 26° SE 22:51:27 47° ENE 22:56:00 10° N visible
07 May 5.6 00:28:00 20° WSW 00:29:25 22° W 00:33:08 10° NW visible
07 May 5.7 21:53:59 10° E 21:56:57 17° ENE 21:59:54 10° NNE visible
07 May 3.9 23:32:18 37° S 23:34:08 72° WSW 23:38:55 10° NNW visible
08 May 4.6 22:36:37 20° ESE 22:39:18 36° ENE 22:43:40 10° N visible
09 May 5.3 00:15:30 23° SW 00:17:06 29° W 00:21:13 10° NW visible
09 May 5.9 21:42:41 10° E 21:44:54 13° ENE 21:47:07 10° NNE visible
09 May 3.7 23:19:49 34° SSE 23:21:55 88° ENE 23:26:43 10° NNW visible
10 May 6.3 00:58:45 10° WSW 01:00:21 11° W 01:01:56 10° WNW visible
10 May 5.0 22:24:08 15° ESE 22:27:11 29° ENE 22:31:15 10° N visible
11 May 4.9 00:03:01 27° SW 00:04:48 37° W 00:09:14 10° NNW visible
11 May 3.8 23:07:20 29° SSE 23:09:43 69° ENE 23:14:28 10° N visible
12 May 6.0 00:46:12 13° WSW 00:47:57 15° W 00:50:43 10° NW visible
12 May 5.3 22:11:39 11° ESE 22:15:05 23° ENE 22:18:48 10° NNE visible
12 May 4.5 23:50:32 30° SSW 23:52:32 48° W 23:57:09 10° NNW visible
13 May 4.1 22:54:51 24° SE 22:57:33 53° ENE 23:02:12 10° N visible
14 May 5.8 00:33:43 16° WSW 00:35:37 20° W 00:39:04 10° NW visible
14 May 5.6 21:59:45 10° ESE 22:03:00 19° ENE 22:06:15 10° NNE visible
14 May 4.1 23:38:02 30° S 23:40:17 63° W 23:45:01 10° NNW visible
